Simultaneous Nadir Overpasses (SNOs) Predictions

Prediction of SNOs between GOES-15 and FY3D Satellite Orbit:

Table of predicted SNOs for the next 14.0 days since TLE Epoch: 4/30/2022
Index Date Time (GOES-15) GOES-15 Lat,Lon FY3D Lat,Lon Distance(km) Time Diff (sec)
1 05/01/2022 10:22:41 0.11,-128.14 0.30,-129.02 99.77 80
2 05/02/2022 10:06:56 0.11,-128.12 -0.67,-124.56 405.42 80
3 05/03/2022 22:26:44 -0.10,-128.10 -0.55,-129.97 214.80 80
4 05/04/2022 22:11:01 -0.11,-128.07 0.48,-125.53 290.39 80
5 05/06/2022 10:30:40 0.09,-128.01 0.72,-130.91 329.46 80
6 05/07/2022 10:14:56 0.10,-127.98 -0.25,-126.45 175.19 80
7 05/08/2022 22:34:44 -0.09,-127.95 -0.94,-131.87 446.37 80
8 05/09/2022 22:19:00 -0.10,-127.92 0.03,-127.41 58.45 80
9 05/12/2022 10:20:14 0.09,-127.83 0.20,-128.33 57.18 80
10 05/13/2022 10:04:30 0.10,-127.79 -0.78,-123.87 446.94 80
